Hourly Data Report for October 31, 2014

All times are specified in Local Standard Time (LST). Add 1 hour to adjust for Daylight Saving Time where and when it is observed.

WINNIPEG A CS
MANITOBA

49°55'00.000" N
97°14'58.000" W
238.70 m
502S001
71849
XWG

Download Data

Hourly Data (October 2014)
Hourly Data Report for October 31, 2014
Temp Definition
°C
Dew Point Temp Definition
°C
Rel Hum Definition
%
Wind Dir Definition
10's deg

Wind Spd Definition
km/h
Visibility Definition
km
Stn Press Definition
kPa
Hmdx Definition


Wind Chill Definition


Weather Definition


TIME
00:00 -7.5 -9.1 89 30 4   100.77   -10 LegendNANA
01:00 -7.8 -8.6 94 32 3   100.79   -9 LegendNANA
02:00 -10.0 -11.0 92 28 6   100.79   -14 LegendNANA
03:00 -10.5 -11.4 92   0   100.74     LegendNANA
04:00 -10.9 -12.1 91 26 3   100.75   -13 LegendNANA
05:00 -11.4 -12.8 89 26 7   100.78   -16 LegendNANA
06:00 -11.2 -12.0 93 23 4   100.77   -14 LegendNANA
07:00 -9.6 -10.9 90 20 6   100.71   -13 LegendNANA
08:00 -8.1 -9.4 91 17 11   100.66   -13 LegendNANA
09:00 -4.8 -7.1 84 18 13   100.62   -10 LegendNANA
10:00 -2.2 -6.2 74 18 16   100.55   -7 LegendNANA
11:00 -0.7 -6.4 65 18 21   100.50   -6 LegendNANA
12:00 0.7 -6.6 58 20 23   100.41     LegendNANA
13:00 2.3 -6.2 53 18 24   100.32     LegendNANA
14:00 3.1 -7.4 46 18 27   100.19     LegendNANA
15:00 3.6 -6.8 47 17 30   100.07     LegendNANA
16:00 2.5 -7.0 49 17 27   100.01     LegendNANA
17:00 1.2 -6.7 55 18 24   99.92     LegendNANA
18:00 0.9 -6.8 56 17 23   99.85     LegendNANA
19:00 1.0 -7.2 54 17 25   99.79     LegendNANA
20:00 0.9 -7.0 56 17 26   99.73     LegendNANA
21:00 1.1 -6.4 57 18 32   99.65     LegendNANA
22:00 1.3 -6.5 56 17 33   99.59     LegendNANA
23:00 1.5 -6.9 54 18 39   99.49     LegendNANA

Notes on Data Quality.

Legend

  • E = Estimated
  • M = Missing
  • NA = Not Available
  • ‡ = Partner data that is not subject to review by the National Climate Archives
Date modified: